Date String (YYYY-MM-DD hh:mm:ss) UTC,Instrument flags,Ambient pressure (hPa),Sample flow (lpm),Bypass flow (lpm),Sample temperature (°C),Ambient temperature (°C),ASC tube jacket temperature (°C),LED temperature (°C),Box temperature (°C),Sample RH (%),Span deviation,Mass concentration (μg/m³),Mass concentration (μg/m³),Mass concentration (μg/m³)
DateTimeUTC,F1_M11,P_M11,Q1_M11,Q2_M11,T1_M11,T2_M11,T3_M11,T4_M11,T5_M11,U1_M11,ZSPAN_M11,X0_M11,X2_M11,X1_M11
2022-08-06 06:00:00,,0826.7,5.00,0.00,29.2,27.1,00.0,38.1,31.0,33.8,0000.0,0017.91,0006.03,0004.39
2022-08-06 06:01:00,,0826.8,4.99,0.00,29.2,27.3,00.0,38.1,31.1,33.8,0000.0,0016.37,0006.04,0004.39
2022-08-06 06:02:00,,0826.9,5.01,0.00,29.2,27.5,00.0,38.1,31.1,33.9,0000.0,0016.96,0006.14,0004.39
2022-08-06 06:03:00,,0826.9,4.99,0.00,29.3,27.7,00.0,38.1,31.2,33.8,0000.0,0017.40,0006.18,0004.39
2022-08-06 06:04:00,,0826.9,5.00,0.00,29.3,27.8,00.0,38.1,31.2,33.9,0000.0,0016.97,0006.14,0004.40
2022-08-06 06:05:00,,0826.8,5.01,0.00,29.3,28.0,00.0,38.1,31.2,33.8,0000.0,0019.61,0006.21,0004.42
2022-08-06 06:06:00,,0826.9,5.00,0.00,29.3,28.1,00.0,38.1,31.3,33.8,0000.0,0020.58,0006.20,0004.44
2022-08-06 06:07:00,,0826.8,5.00,0.00,29.4,28.2,00.0,38.1,31.3,33.6,0000.0,0020.66,0006.21,0004.45
2022-08-06 06:08:00,,0826.9,4.99,0.00,29.4,28.3,00.0,38.1,31.4,33.4,0000.0,0020.72,0006.20,0004.45
2022-08-06 06:09:00,,0826.9,5.00,0.00,29.4,28.4,00.0,38.2,31.4,33.4,0000.0,0020.71,0006.19,0004.45
2022-08-06 06:10:00,,0826.9,5.00,0.00,29.5,28.5,00.0,38.2,31.5,33.3,0000.0,0021.13,0006.16,0004.44
2022-08-06 06:11:00,,0827.0,5.01,0.00,29.5,28.6,00.0,38.2,31.5,33.3,0000.0,0021.64,0006.17,0004.43
2022-08-06 06:12:00,,0826.9,5.00,0.00,29.5,28.5,00.0,38.2,31.5,33.1,0000.0,0022.16,0006.17,0004.42
2022-08-06 06:13:00,,0826.9,4.99,0.00,29.5,27.7,00.0,38.2,31.3,33.1,0000.0,0021.46,0006.10,0004.42
2022-08-06 06:14:00,,0826.9,5.00,0.00,29.4,27.2,00.0,38.1,31.2,33.2,0000.0,0021.46,0006.04,0004.41
2022-08-06 06:15:00,,0827.1,5.00,0.00,29.4,27.0,00.0,38.1,31.1,33.3,0000.0,0020.82,0006.01,0004.41
2022-08-06 06:16:00,,0827.1,5.00,0.00,29.3,27.0,00.0,38.1,31.0,33.5,0000.0,0018.96,0005.94,0004.39
2022-08-06 06:17:00,,0827.2,4.99,0.00,29.3,27.2,00.0,38.1,31.1,33.7,0000.0,0018.24,0005.92,0004.37
2022-08-06 06:18:00,,0827.2,5.01,0.00,29.3,27.3,00.0,38.1,31.1,33.7,0000.0,0020.00,0005.97,0004.37
2022-08-06 06:19:00,,0826.9,4.99,0.00,29.3,27.5,00.0,38.1,31.1,33.7,0000.0,0019.77,0006.03,0004.39
2022-08-06 06:20:00,,0827.0,5.01,0.00,29.3,27.7,00.0,38.1,31.2,33.6,0000.0,0020.05,0006.08,0004.41
2022-08-06 06:21:00,,0827.0,4.99,0.00,29.3,27.8,00.0,38.1,31.2,33.5,0000.0,0020.24,0006.13,0004.42
2022-08-06 06:22:00,,0827.0,5.00,0.00,29.3,28.0,00.0,38.1,31.3,33.4,0000.0,0020.86,0006.18,0004.44
2022-08-06 06:23:00,,0827.0,5.00,0.00,29.3,28.1,00.0,38.1,31.3,33.3,0000.0,0020.82,0006.19,0004.46
2022-08-06 06:24:00,,0827.0,5.00,0.00,29.4,28.2,00.0,38.1,31.4,33.3,0000.0,0020.18,0006.13,0004.47
2022-08-06 06:25:00,,0827.1,5.01,0.00,29.4,28.3,00.0,38.1,31.4,33.2,0000.0,0019.40,0006.16,0004.51
2022-08-06 06:26:00,,0827.4,5.00,0.00,29.4,28.4,00.0,38.2,31.4,33.1,0000.0,0019.77,0006.23,0004.53
2022-08-06 06:27:00,,0827.3,5.00,0.00,29.5,28.5,00.0,38.2,31.5,33.1,0000.0,0020.40,0006.31,0004.54
2022-08-06 06:28:00,,0827.4,4.99,0.00,29.5,28.6,00.0,38.2,31.5,33.0,0000.0,0019.18,0006.31,0004.57
2022-08-06 06:29:00,,0827.3,5.01,0.00,29.5,28.5,00.0,38.2,31.5,32.9,0000.0,0017.55,0006.26,0004.56
2022-08-06 06:30:00,,0827.3,4.99,0.00,29.5,27.8,00.0,38.2,31.4,33.0,0000.0,0018.06,0006.24,0004.55
2022-08-06 06:31:00,,0827.1,5.01,0.00,29.5,27.1,00.0,38.2,31.2,33.0,0000.0,0018.45,0006.20,0004.55
2022-08-06 06:32:00,,0827.1,5.01,0.00,29.4,26.9,00.0,38.1,31.1,33.1,0000.0,0018.18,0006.16,0004.56
2022-08-06 06:33:00,,0827.1,4.99,0.00,29.3,27.0,00.0,38.1,31.0,33.2,0000.0,0017.34,0006.06,0004.54
2022-08-06 06:34:00,,0827.2,5.00,0.00,29.3,27.1,00.0,38.1,31.0,33.3,0000.0,0017.05,0006.03,0004.52
2022-08-06 06:35:00,,0827.2,5.00,0.00,29.2,27.3,00.0,38.1,31.0,33.4,0000.0,0017.24,0006.10,0004.51
2022-08-06 06:36:00,,0827.2,5.00,0.00,29.2,27.4,00.0,38.1,31.1,33.3,0000.0,0017.24,0006.07,0004.48
2022-08-06 06:37:00,,0827.2,5.00,0.00,29.3,27.6,00.0,38.1,31.2,33.2,0000.0,0017.64,0005.96,0004.44
2022-08-06 06:38:00,,0827.2,4.99,0.00,29.3,27.8,00.0,38.1,31.2,33.2,0000.0,0018.14,0005.89,0004.42
2022-08-06 06:39:00,,0827.2,5.01,0.00,29.3,27.9,00.0,38.1,31.2,33.2,0000.0,0018.65,0005.80,0004.37
2022-08-06 06:40:00,,0827.2,4.99,0.00,29.3,28.1,00.0,38.1,31.3,33.1,0000.0,0018.26,0005.76,0004.35
2022-08-06 06:41:00,,0827.2,5.00,0.00,29.4,28.2,00.0,38.1,31.3,33.2,0000.0,0017.46,0005.70,0004.34
2022-08-06 06:42:00,,0827.2,5.00,0.00,29.4,28.3,00.0,38.1,31.4,33.3,0000.0,0017.20,0005.68,0004.33
2022-08-06 06:43:00,,0827.2,5.00,0.00,29.4,28.4,00.0,38.2,31.4,33.3,0000.0,0017.80,0005.68,0004.32
2022-08-06 06:44:00,,0827.2,4.99,0.00,29.5,28.5,00.0,38.2,31.5,33.6,0000.0,0018.13,0005.73,0004.34
2022-08-06 06:45:00,,0827.4,5.00,0.00,29.5,28.6,00.0,38.2,31.5,33.8,0000.0,0018.35,0005.71,0004.35
2022-08-06 06:46:00,,0827.2,5.00,0.00,29.5,28.5,00.0,38.2,31.5,33.8,0000.0,0018.33,0005.71,0004.37
2022-08-06 06:47:00,,0827.2,5.01,0.00,29.5,27.8,00.0,38.2,31.3,33.8,0000.0,0018.71,0005.73,0004.40
2022-08-06 06:48:00,,0827.3,5.00,0.00,29.4,27.1,00.0,38.1,31.2,34.0,0000.7,0018.35,0005.79,0004.44
2022-08-06 06:49:00,,0827.2,4.99,0.00,29.4,26.9,00.0,38.1,31.1,34.1,0001.0,0016.89,0005.77,0004.47
2022-08-06 06:50:00,,0827.3,5.00,0.00,29.3,26.9,00.0,38.1,31.0,34.3,0000.2,0016.58,0005.88,0004.52
2022-08-06 06:51:00,,0827.3,5.01,0.00,29.2,27.1,00.0,38.1,31.0,34.3,-000.0,0016.41,0005.91,0004.56
2022-08-06 06:52:00,,0827.4,4.99,0.00,29.2,27.2,00.0,38.1,31.0,34.3,-000.2,0015.99,0005.93,0004.57
2022-08-06 06:53:00,,0827.4,5.01,0.00,29.2,27.4,00.0,38.1,31.1,34.3,0000.2,0015.51,0005.98,0004.59
2022-08-06 06:54:00,,0827.4,4.99,0.00,29.2,27.6,00.0,38.1,31.1,34.3,0000.3,0014.53,0006.03,0004.60
2022-08-06 06:55:00,,0827.4,5.01,0.00,29.3,27.8,00.0,38.1,31.2,34.4,0000.5,0014.80,0006.01,0004.61
2022-08-06 06:56:00,,0827.4,4.99,0.00,29.3,27.9,00.0,38.1,31.2,34.4,0000.3,0014.62,0006.02,0004.61
2022-08-06 06:57:00,,0827.4,5.00,0.00,29.3,28.0,00.0,38.1,31.3,34.4,0000.4,0014.57,0006.00,0004.61
2022-08-06 06:58:00,,0827.5,5.00,0.00,29.3,28.1,00.0,38.1,31.3,34.4,0000.4,0014.64,0005.98,0004.60
2022-08-06 06:59:00,,0827.4,5.00,0.00,29.4,28.2,00.0,38.1,31.4,34.3,0000.2,0014.85,0006.00,0004.60
